METEOR 2-11 DEB

Satellite information

Favourite Embed

Satellite Type and Status

DEBRISIN ORBIT

Key statistics

Satellite METEOR 2-11 DEB at a glance.

Uptime

15137

Days in orbit

Revolutions

≈ 14.0

Per day

Orbit

LEO

Low Earth Orbit

Inclination

82.5

Latest

Satellite identification and parameters

Extended collection of information and parameters for METEOR 2-11 DEB.

Object identification

Identified? True

Debris? True

Object name: METEOR 2-11 DEB

International designator: 1984-072Z

Object number (NORAD): 60004

Object ID (CCSDS): 60004

Country: COMMONWEALTH OF INDEPENDENT STATES (CIS)

Current information (Y/N): Y

RCS size: SMALL

Orbital parameters

Period: 102.842 minutes

Inclination: 82.517 deg

SMA: 7271.207 km

Apoapsis: 900.553 km

Periapsis: 885.592 km

RAAN: 162.978 deg

Eccentricy: 0.00102883

Argument of periapsis: 72.2353 deg

Mean anomaly: 287.9938 deg

Mean motion: 14.00209321 rev/day

Mean motion (dot): 0.00002612 rev/day2

B* drag term: 0.0017592745 1/REarth

Two-line elements (TLE)

Creation date: Nov. 29, 2025, 7:07 p.m.

Reference frame: TEME

Reference center: EARTH

Epoch: Nov. 28, 2025, 7 p.m. UTC

TLE line 0: 0 METEOR 2-11 DEB

TLE line 1: 1 60004U 84072Z 25332.79193819 .00002612 00000-0 17593-2 0 9991

TLE line 2: 2 60004 82.5170 162.9780 0010288 72.2353 287.9938 14.00209321436167

Live tracking on map

Real-time ground track for satellite METEOR 2-11 DEB.

In-orbit conjunctions

A list of the most updated potential collisions computed for object METEOR 2-11 DEB.

Target Orbit TCA Probability of collision Miss distance Type
CZ-6A DEB LEO 2024-09-28 20:42:35 0.0002171969 347.0 (m) DEBRIS
COSMOS 1275 DEB LEO 2024-06-30 21:43:13 0.0001422367 395.0 (m) DEBRIS

Associated space launch

Second generation soviet meteorological satellite

METEOR 2-11 DEB was lifted into orbit during the mission ‘Tsiklon-3 | Meteor-2 11’, on board a Tsiklon-3 space rocket.

The launch took place on July 5, 1984, 3:35 a.m. from 32/2.

For more information about the launch, click the button.

Launch to space Tsiklon-3 | Meteor-2 11
Tsiklon-3 | Meteor-2 11

Agency: N/A

Status: Launch Successful

Launch date: July 5, 1984, 3:35 a.m. UTC

Rocket: Tsiklon-3

Launch pad: 32/2

Location: Plesetsk Cosmodrome, Russian Federation

...

Latest news about this satellite

There are no fresh news available about this satellite. Check back as we update our databases every day.


Newsletter sign-up

Weekly statistics, charts and insights to help you stay on top of the space industry.